Location: Winthrop
(48.4780°N, 120.1850°W)
Time: 22:20:36
(UTC-07:00)

S-56A Canister/Altair - Pass Details

Date: 02 June 2023
Orbit: 640 x 2489 km, 38.9° (Epoch: 29 September)

Event Time Altitude Azimuth Distance (km) Brightness Sun altitude
Rises 01:18:05 0° 263° (W) 6,018 12.0 -19.2°
Reaches altitude 10° 01:22:00 10° 260° (W) 5,099 11.5 -19.2°
Maximum altitude 01:36:29 57° 188° (S) 2,735 9.9 -18.8°
Drops below altitude 10° 01:49:07 10° 115° (ESE) 4,492 11.3 -18.5°
Sets 01:52:20 0° 111° (ESE) 5,282 11.7 -18.3°
